Location: Ferintosh
(52.7647°N, 112.9692°W)
Time: 03:54:47
(UTC+00:00)

A-11 Canister half - All Passes

Search period start: 21 May 2024 00:00
Search period end: 31 May 2024 00:00
Orbit: 1514 x 1685 km, 47.2° (Epoch: 20 May)

Date Brightness Start Highest point End Pass type
(mag) Time Alt. Az. Time Alt. Az. Time Alt. Az.
21 May - 09:25:10 10° SSW 09:33:07 32° SE 09:40:55 10° E visible
21 May - 11:27:37 10° WSW 11:36:43 57° SSE 11:45:40 10° E daylight
21 May - 13:31:48 10° W 13:40:54 61° S 13:49:55 10° ESE daylight
21 May - 15:36:26 10° W 15:44:42 39° SSW 15:52:59 10° SSE daylight
21 May - 17:43:15 10° W 17:47:23 14° SW 17:51:34 10° SSW daylight
22 May - 09:02:25 10° SSW 09:10:15 30° SE 09:17:55 10° E visible
22 May - 11:04:41 10° WSW 11:13:47 56° SSE 11:22:43 10° E daylight
22 May - 13:08:49 10° W 13:17:58 62° S 13:27:00 10° ESE daylight
22 May - 15:13:26 10° W 15:21:48 40° SSW 15:30:10 10° SE daylight
22 May - 17:19:55 10° W 17:24:34 15° SW 17:29:14 10° SSW daylight
23 May - 08:39:39 10° SSW 08:47:22 29° SE 08:54:54 10° E visible
23 May - 10:41:45 10° SW 10:50:52 55° SSE 10:59:46 10° E daylight
23 May - 12:45:52 10° W 12:55:02 62° S 13:04:04 10° ESE daylight
23 May - 14:50:27 10° W 14:58:55 42° SSW 15:07:21 10° SE daylight
23 May - 16:56:40 10° W 17:01:44 16° SW 17:06:50 10° SSW daylight
24 May - 08:16:55 10° SSW 08:24:29 28° SE 08:31:54 10° E visible
24 May - 10:18:50 10° SW 10:27:56 54° SSE 10:36:49 10° E visible
24 May - 12:22:54 10° W 12:32:05 63° S 12:41:09 10° ESE daylight
24 May - 14:27:28 10° W 14:36:01 43° SSW 14:44:31 10° SE daylight
24 May - 16:33:28 10° W 16:38:54 17° SW 16:44:22 10° SSW daylight
25 May - 07:54:12 10° S 08:01:37 26° SE 08:08:52 10° E visible
25 May - 09:55:55 10° SW 10:05:00 52° SSE 10:13:52 10° E visible
25 May - 11:59:55 10° W 12:09:09 63° S 12:18:12 10° ESE daylight
25 May - 14:04:30 10° W 14:13:07 45° SSW 14:21:40 10° SE daylight
25 May - 16:10:18 10° W 16:16:04 19° SW 16:21:52 10° S daylight
26 May - 07:31:30 10° S 07:38:44 25° SE 07:45:50 10° E visible
26 May - 09:33:00 10° SW 09:42:05 51° SSE 09:50:56 10° E visible
26 May - 11:36:58 10° W 11:46:13 63° S 11:55:16 10° ESE daylight
26 May - 13:41:31 10° W 13:50:12 46° SSW 13:58:49 10° SE daylight
26 May - 15:47:09 10° W 15:53:14 20° SW 15:59:19 10° S daylight
27 May - 07:08:49 10° S 07:15:52 24° SE 07:22:47 10° E visible
27 May - 09:10:06 10° SW 09:19:09 50° SSE 09:27:58 10° E visible
27 May - 11:13:59 10° W 11:23:16 64° S 11:32:20 10° ESE daylight
27 May - 13:18:32 10° W 13:27:18 48° SSW 13:35:58 10° SE daylight
27 May - 15:24:02 10° W 15:30:23 21° SW 15:36:44 10° S daylight
28 May - 06:46:09 10° S 06:53:01 22° SE 06:59:43 10° E visible
28 May - 08:47:11 10° SW 08:56:14 49° SSE 09:05:01 10° E visible
28 May - 10:51:01 10° WSW 11:00:19 64° S 11:09:24 10° ESE daylight
28 May - 12:55:33 10° W 13:04:23 49° SSW 13:13:06 10° SE daylight
28 May - 15:00:56 10° W 15:07:32 22° SW 15:14:08 10° S daylight
29 May - 06:23:31 10° S 06:30:09 21° SE 06:36:37 10° E visible
29 May - 08:24:17 10° SW 08:33:18 47° SSE 08:42:04 10° E visible
29 May - 10:28:03 10° WSW 10:37:23 64° S 10:46:28 10° E visible
29 May - 12:32:34 10° W 12:41:28 50° SSW 12:50:14 10° SE daylight
29 May - 14:37:51 10° W 14:44:41 24° SW 14:51:30 10° S daylight
30 May - 06:00:55 10° S 06:07:17 20° SE 06:13:31 10° E visible
30 May - 08:01:24 10° SW 08:10:23 46° SSE 08:19:07 10° E visible
30 May - 10:05:04 10° WSW 10:14:26 63° S 10:23:32 10° E visible
30 May - 12:09:35 10° W 12:18:33 52° SSW 12:27:21 10° SE daylight
30 May - 14:14:47 10° W 14:21:50 25° SW 14:28:51 10° S daylight
